Starlink 32881

operational
NORAD ID: 62997 Int'l Des: 2025-031 Owner: SPXS Country: US Constellation: starlink
LEOCIRCULAR

Über Starlink 32881

Beschreibung wird geladen...

Live-Position

3D-Globus wird geladen...

Nächste Überflüge

Höhenverlauf

Altitude vs Time

uPlot chart will show altitude changes over time

Zweizeiliger Elementsatz

1 62997U 25031S 25352.12784636 .00022601 00000-0 82817-3 0 9998
2 62997 42.9992 243.7550 0001464 269.4828 90.5856 15.27585062 48624
Epoch: 18. Dez. 2025 • Age: 12 hours

Aktueller Status

Höhe 483.8 km
Geschwindigkeit 7.63 km/s
Subsatellitenpunkt 27.12°N, 80.62°E
Startdatum 11. Feb. 2025
Alter 0.8 years
Typ internet

Technische Details

Klassifizierung Payload
Masse 730.00 kg
Trockenmasse 700.00 kg
Gesamtmasse 730.00 kg
Länge 0.30 m
Durchmesser 4.10 m
Spannweite 29.00 m
Form Box + pan
Hersteller SPXS
Bus-Typ Starlink V2M
Phasenstatus In Orbit
Besitzer/Staat SPXS/US

Große Konstellationen

Loading constellations...